EW9081 Weather Reports


time (UTC)temp
C
wind
direction
speed
KPH
gust
KPH
rain 1hr
cm
rain 24hr
cm
rain mn
cm
humidity
%
barometer
mb
20260503194652 26 343 0.0 4.8 0.00 0.00 0.00 56 1010.3
20260503194151 26 284 1.6 4.8 0.00 0.00 0.00 51 1010.4
20260503193652 26 29 1.6 8.0 0.00 0.00 0.00 53 1010.4
20260503193152 26 25 1.6 8.0 0.00 0.00 0.00 56 1010.4
20260503192652 25 21 1.6 8.0 0.00 0.00 0.00 52 1010.4
20260503192158 25 215 1.6 6.4 0.00 0.00 0.00 57 1010.5
20260503192153 25 115 1.6 8.0 0.00 0.00 0.00 54 1010.5
20260503191158 25 180 3.2 8.0 0.00 0.00 0.00 54 1010.7
20260503191153 25 178 3.2 6.4 0.00 0.00 0.00 52 1010.6
20260503190653 25 165 3.2 8.0 0.00 0.00 0.00 54 1010.6
20260503185653 25 184 1.6 8.0 0.00 0.00 0.00 56 1010.8
20260503185153 25 54 1.6 8.0 0.00 0.00 0.00 52 1010.9
20260503184652 25 67 1.6 8.0 0.00 0.00 0.00 53 1010.9
20260503184152 24 172 1.6 4.8 0.00 0.00 0.00 55 1010.9
20260503183649 24 338 1.6 4.8 0.00 0.00 0.00 59 1010.9
20260503183151 24 183 1.6 4.8 0.00 0.00 0.00 56 1011.0
20260503182650 24 169 1.6 4.8 0.00 0.00 0.00 58 1011.0
20260503182155 23 92 1.6 8.0 0.00 0.00 0.00 65 1011.1
20260503182151 23 140 1.6 8.0 0.00 0.00 0.00 62 1011.0
20260503181150 23 74 1.6 8.0 0.00 0.00 0.00 61 1011.1
20260503180650 23 71 3.2 8.0 0.00 0.00 0.00 60 1011.1
20260503180150 22 145 3.2 8.0 0.00 0.00 0.00 60 1011.2
20260503175650 22 161 3.2 9.7 0.00 0.00 0.00 65 1011.2
20260503175150 22 176 3.2 9.7 0.00 0.00 0.00 61 1011.2
20260503174649 22 86 1.6 8.0 0.00 0.00 0.00 60 1011.2
20260503174156 22 173 1.6 6.4 0.00 0.00 0.00 62 1011.3
20260503174149 22 182 1.6 4.8 0.00 0.00 0.00 63 1011.2
20260503173650 22 146 1.6 4.8 0.00 0.00 0.00 60 1011.3
20260503172655 21 70 1.6 6.4 0.00 0.00 0.00 63 1011.3
20260503172650 21 58 1.6 6.4 0.00 0.00 0.00 63 1011.3
20260503171654 21 171 0.0 3.2 0.00 0.00 0.00 63 1011.3
20260503171649 21 175 1.6 6.4 0.00 0.00 0.00 64 1011.3
20260503170651 21 158 0.0 3.2 0.00 0.00 0.00 66 1011.3
20260503170155 21 103 0.0 4.8 0.00 0.00 0.00 68 1011.4
20260503170149 21 157 0.0 4.8 0.00 0.00 0.00 64 1011.4
20260503160148 18 166 0.0 0.0 0.00 0.00 0.00 83 1011.5
20260503160144 18 166 0.0 0.0 0.00 0.00 0.00 81 1011.5
20260503150645 13 167 0.0 0.0 0.00 0.00 0.00 95 1011.7
20260503150641 14 167 0.0 0.0 0.00 0.00 0.00 93 1011.7
20260503140135 9 167 0.0 0.0 0.00 0.00 0.00 95 1011.7
20260503130633 8 167 0.0 0.0 0.00 0.00 0.00 94 1011.4
20260503130133 8 167 0.0 0.0 0.00 0.00 0.00 94 1011.4
20260503120129 10 167 0.0 0.0 0.00 0.00 0.00 92 1011.5
20260503110123 11 177 0.0 0.0 0.00 0.00 0.00 91 1011.6
20260503100121 10 207 0.0 0.0 0.00 0.00 0.00 91 1011.9
20260503090120 11 178 0.0 0.0 0.00 0.00 0.00 92 1012.1
20260503081618 11 178 0.0 0.0 0.00 0.00 0.00 91 1012.3
20260503081119 11 178 0.0 0.0 0.00 0.00 0.00 91 1012.3
20260503080619 11 173 0.0 0.0 0.00 0.00 0.00 91 1012.3
20260503080124 11 173 0.0 0.0 0.00 0.00 0.00 90 1012.3
20260503080118 11 173 0.0 0.0 0.00 0.00 0.00 90 1012.3
20260503072620 12 171 0.0 0.0 0.00 0.00 0.00 86 1012.5
20260503072120 12 171 0.0 1.6 0.00 0.00 0.00 87 1012.5
20260503071618 12 171 0.0 3.2 0.00 0.00 0.00 87 1012.5
20260503071118 12 171 0.0 3.2 0.00 0.00 0.00 87 1012.5
20260503070619 12 171 0.0 3.2 0.00 0.00 0.00 88 1012.5
20260503070117 12 171 0.0 4.8 0.00 0.00 0.00 88 1012.5
20260503060114 13 204 0.0 3.2 0.00 0.00 0.00 86 1012.3
20260503054613 13 204 0.0 3.2 0.00 0.00 0.00 84 1012.3
20260503054116 14 204 0.0 3.2 0.00 0.00 0.00 83 1012.4
20260503054111 14 204 0.0 0.0 0.00 0.00 0.00 83 1012.3
20260503053110 14 204 0.0 3.2 0.00 0.00 0.00 82 1012.4
20260503052613 15 204 0.0 3.2 0.00 0.00 0.00 82 1012.2
20260503052609 15 204 0.0 3.2 0.00 0.00 0.00 82 1012.3
20260503052220 15 204 0.0 3.2 0.00 0.00 0.00 83 1012.4
20260503051107 15 204 0.0 3.2 0.00 0.00 0.00 82 1012.3
20260503050607 15 203 0.0 3.2 0.00 0.00 0.00 82 1012.4
20260503050105 15 203 0.0 3.2 0.00 0.00 0.00 82 1012.4
20260503045605 15 202 0.0 0.0 0.00 0.00 0.00 81 1012.3
20260503045109 15 202 0.0 3.2 0.00 0.00 0.00 82 1012.3
20260503045104 15 202 0.0 3.2 0.00 0.00 0.00 81 1012.3
20260503044104 15 214 0.0 0.0 0.00 0.00 0.00 82 1012.3
20260503043602 15 237 0.0 0.0 0.00 0.00 0.00 82 1012.3
20260503043106 16 237 0.0 0.0 0.00 0.00 0.00 82 1012.3
20260503043101 16 237 0.0 0.0 0.00 0.00 0.00 82 1012.4
20260503042059 16 238 0.0 0.0 0.00 0.00 0.00 81 1012.3
20260503041558 16 238 0.0 0.0 0.00 0.00 0.00 81 1012.1
20260503041105 16 285 0.0 0.0 0.00 0.00 0.00 78 1012.0
20260503041059 16 238 0.0 0.0 0.00 0.00 0.00 80 1012.2
20260503040557 16 238 0.0 0.0 0.00 0.00 0.00 80 1012.1
20260503040057 16 264 0.0 0.0 0.00 0.00 0.00 79 1012.1
20260503035056 16 285 0.0 0.0 0.00 0.00 0.00 78 1011.9
20260503034558 16 286 0.0 0.0 0.00 0.00 0.00 78 1011.8
20260503034101 16 290 0.0 1.6 0.00 0.00 0.00 78 1011.7
20260503034057 16 288 0.0 0.0 0.00 0.00 0.00 78 1011.7
20260503033057 16 290 1.6 4.8 0.00 0.00 0.00 78 1011.7
20260503032556 17 297 1.6 4.8 0.00 0.00 0.00 77 1011.6
20260503032056 16 279 0.0 3.2 0.00 0.00 0.00 77 1011.6
20260503031556 16 278 0.0 3.2 0.00 0.00 0.00 78 1011.5
20260503031057 16 313 1.6 4.8 0.00 0.00 0.00 78 1011.5
20260503030558 16 336 3.2 4.8 0.00 0.00 0.00 78 1011.4
20260503030056 17 302 3.2 4.8 0.00 0.00 0.00 77 1011.5
20260503025556 17 288 1.6 4.8 0.00 0.00 0.00 77 1011.7
20260503025056 17 173 0.0 3.2 0.00 0.00 0.00 76 1011.9
20260503024556 17 169 0.0 0.0 0.00 0.00 0.00 75 1011.8
20260503024057 17 169 0.0 4.8 0.00 0.00 0.00 73 1011.9
20260503023558 18 169 0.0 4.8 0.00 0.00 0.00 72 1012.0
20260503023056 18 169 1.6 8.0 0.00 0.00 0.00 72 1012.0
20260503022557 18 167 3.2 12.9 0.00 0.00 0.00 72 1012.0
20260503022058 18 197 3.2 12.9 0.00 0.00 0.00 72 1012.3
20260503021556 18 200 3.2 12.9 0.00 0.00 0.00 71 1012.3
20260503021055 18 167 3.2 12.9 0.00 0.00 0.00 70 1012.3
20260503020555 18 148 3.2 11.3 0.00 0.00 0.00 70 1012.4
20260503020055 18 172 3.2 6.4 0.00 0.00 0.00 70 1012.2
20260503015554 19 134 3.2 8.0 0.00 0.00 0.00 70 1012.1
20260503015054 19 167 1.6 8.0 0.00 0.00 0.00 71 1012.0
20260503014552 19 153 1.6 6.4 0.00 0.00 0.00 69 1011.8
20260503014053 19 187 1.6 6.4 0.00 0.00 0.00 69 1011.6
20260503013557 20 181 1.6 6.4 0.00 0.00 0.00 68 1011.5
20260503013553 20 171 1.6 6.4 0.00 0.00 0.00 69 1011.6
20260503012552 20 202 1.6 6.4 0.00 0.00 0.00 66 1011.5
20260503012051 20 151 1.6 6.4 0.00 0.00 0.00 65 1011.5
20260503011550 20 170 1.6 6.4 0.00 0.00 0.00 63 1011.5
20260503011050 20 213 1.6 4.8 0.00 0.00 0.00 63 1011.5
20260503010556 21 175 1.6 6.4 0.00 0.00 0.00 63 1011.5
20260503010552 21 192 1.6 4.8 0.00 0.00 0.00 63 1011.5
20260503005551 21 119 1.6 6.4 0.00 0.00 0.00 62 1011.5
20260503005052 21 147 1.6 6.4 0.00 0.00 0.00 61 1011.5
20260503004550 21 13 1.6 6.4 0.00 0.00 0.00 62 1011.4
20260503004055 21 317 1.6 3.2 0.00 0.00 0.00 59 1011.2
20260503004051 22 150 1.6 6.4 0.00 0.00 0.00 60 1011.4
20260503003550 22 287 1.6 3.2 0.00 0.00 0.00 59 1011.4
20260503003047 22 290 1.6 3.2 0.00 0.00 0.00 59 1011.3
20260503002546 21 314 1.6 4.8 0.00 0.00 0.00 60 1011.2
20260503001549 21 286 1.6 4.8 0.00 0.00 0.00 59 1011.2
20260503001544 21 245 1.6 4.8 0.00 0.00 0.00 65 1011.3
20260503000544 21 269 1.6 4.8 0.00 0.00 0.00 65 1011.3
20260503000050 21 306 1.6 6.4 0.00 0.00 0.00 61 1011.4
20260503000045 20 275 3.2 6.4 0.00 0.00 0.00 61 1011.4
20260502235545 20 275 3.2 6.4 0.00 0.00 0.00 60 1011.4
20260502235159 20 21 1.6 6.4 0.00 0.00 0.00 62 1011.5
20260502234044 20 304 1.6 4.8 0.00 0.00 0.00 59 1011.6
20260502233544 20 340 1.6 4.8 0.00 0.00 0.00 62 1011.7
20260502233050 20 323 1.6 6.4 0.00 0.00 0.00 63 1011.8
20260502233045 20 5 3.2 6.4 0.00 0.00 0.00 62 1011.7
20260502232044 20 327 1.6 3.2 0.00 0.00 0.00 64 1011.9
20260502231543 19 190 1.6 4.8 0.00 0.00 0.00 65 1012.0
20260502231042 20 190 1.6 4.8 0.00 0.00 0.00 61 1012.1
20260502230547 20 347 3.2 8.0 0.00 0.00 0.00 61 1012.2
20260502230543 20 265 1.6 4.8 0.00 0.00 0.00 62 1012.1
20260502225542 20 350 1.6 8.0 0.00 0.00 0.00 60 1012.2
20260502225042 20 168 1.6 6.4 0.00 0.00 0.00 62 1012.4
20260502224543 20 165 1.6 6.4 0.00 0.00 0.00 63 1012.5
20260502224042 20 228 1.6 4.8 0.00 0.00 0.00 62 1012.5
20260502223542 20 253 1.6 4.8 0.00 0.00 0.00 65 1012.6
20260502223042 20 58 1.6 4.8 0.00 0.00 0.00 61 1012.8
20260502222540 19 41 1.6 4.8 0.00 0.00 0.00 62 1012.8
20260502222040 19 355 3.2 8.0 0.00 0.00 0.00 61 1012.9
20260502221540 19 12 1.6 8.0 0.00 0.00 0.00 64 1012.9
20260502221040 19 286 1.6 4.8 0.00 0.00 0.00 66 1012.9
20260502220540 18 164 1.6 4.8 0.00 0.00 0.00 64 1013.1
20260502220039 18 172 1.6 4.8 0.00 0.00 0.00 66 1013.2
20260502215540 18 296 1.6 4.8 0.00 0.00 0.00 66 1013.2
20260502215041 18 174 1.6 4.8 0.00 0.00 0.00 67 1013.3
20260502214540 18 171 1.6 4.8 0.00 0.00 0.00 65 1013.3
20260502214040 17 263 3.2 4.8 0.00 0.00 0.00 65 1013.3
20260502213537 17 355 3.2 6.4 0.00 0.00 0.00 66 1013.3
20260502213039 17 222 1.6 8.0 0.00 0.00 0.00 70 1013.5
20260502212537 17 156 1.6 8.0 0.00 0.00 0.00 66 1013.5
20260502212036 17 152 1.6 6.4 0.00 0.00 0.00 67 1013.6
20260502211536 17 159 1.6 6.4 0.00 0.00 0.00 69 1013.7
20260502211038 16 174 1.6 8.0 0.00 0.00 0.00 69 1013.8
20260502211034 17 189 1.6 8.0 0.00 0.00 0.00 74 1013.7
20260502210648 16 169 1.6 6.4 0.00 0.00 0.00 70 1013.9
20260502205540 16 173 1.6 6.4 0.00 0.00 0.00 69 1013.9
20260502205534 16 168 3.2 6.4 0.00 0.00 0.00 71 1013.9
20260502205032 16 146 1.6 6.4 0.00 0.00 0.00 71 1013.9
20260502204645 16 76 1.6 6.4 0.00 0.00 0.00 70 1014.0
20260502203532 15 346 1.6 8.0 0.00 0.00 0.00 70 1014.1
20260502203032 15 355 3.2 8.0 0.00 0.00 0.00 70 1014.1
20260502202539 15 298 3.2 8.0 0.00 0.00 0.00 72 1014.5
20260502202532 16 83 3.2 8.0 0.00 0.00 0.00 69 1014.2
20260502202032 16 250 3.2 11.3 0.00 0.00 0.00 68 1014.3
20260502201532 16 284 3.2 11.3 0.00 0.00 0.00 70 1014.5
20260502200537 15 280 1.6 4.8 0.00 0.00 0.00 74 1014.8
20260502200532 15 284 3.2 8.0 0.00 0.00 0.00 74 1014.6
20260502195530 15 355 3.2 6.4 0.00 0.00 0.00 74 1014.9
20260502195034 14 5 3.2 6.4 0.00 0.00 0.00 75 1015.0
20260502195028 14 22 3.2 6.4 0.00 0.00 0.00 73 1015.2